timestamp,wind_dir_avg,wind_spd_avg,wind_spd_max_dir,wind_spd_gust,battery_voltage,lat,long
2022-02-16 00:04:01+00:00,289.0,9.54,289.0,11.2,12.41,47.59359,-54.27349
2022-02-16 00:14:01+00:00,299.0,8.48,294.0,11.37,12.33,47.59359,-54.27349
2022-02-16 00:24:01+00:00,290.0,9.59,293.0,11.27,12.33,47.59359,-54.27349
2022-02-16 00:34:01+00:00,300.0,10.28,308.0,12.78,12.33,47.59359,-54.27349
2022-02-16 00:44:01+00:00,302.0,10.69,303.0,12.18,12.33,47.59359,-54.27349
2022-02-16 00:54:01+00:00,306.0,9.62,302.0,12.11,12.33,47.59359,-54.27349
2022-02-16 01:04:01+00:00,321.0,8.6,308.0,12.48,12.33,47.59359,-54.27349
2022-02-16 01:14:01+00:00,322.0,8.34,311.0,11.4,12.25,47.59359,-54.27349
2022-02-16 01:24:01+00:00,304.0,9.65,304.0,11.54,12.25,47.59359,-54.27349
2022-02-16 01:34:01+00:00,296.0,10.41,300.0,11.75,12.25,47.59359,-54.27349
2022-02-16 01:44:01+00:00,305.0,9.85,302.0,12.02,12.25,47.59359,-54.27349
2022-02-16 01:54:01+00:00,308.0,8.61,299.0,11.49,12.25,47.59359,-54.27349
2022-02-16 02:04:01+00:00,315.0,7.09,286.0,10.67,12.25,47.59359,-54.27349
2022-02-16 02:14:01+00:00,318.0,5.89,298.0,9.37,12.25,47.59359,-54.27349
2022-02-16 02:24:01+00:00,297.0,7.57,296.0,10.29,12.25,47.59359,-54.27349
2022-02-16 02:34:01+00:00,293.0,9.42,295.0,10.8,12.25,47.59359,-54.27349
2022-02-16 02:44:01+00:00,293.0,8.99,289.0,10.66,12.25,47.59359,-54.27349
2022-02-16 02:54:01+00:00,293.0,9.92,296.0,11.53,12.25,47.59359,-54.27349
2022-02-16 03:04:01+00:00,298.0,5.13,290.0,8.98,12.25,47.59359,-54.27349
2022-02-16 03:14:00+00:00,300.0,8.9,292.0,10.82,12.17,47.59359,-54.27349
2022-02-16 03:24:00+00:00,293.0,9.86,299.0,11.18,12.17,47.59359,-54.27349
2022-02-16 03:34:00+00:00,290.0,9.21,283.0,10.53,12.17,47.59359,-54.27349
2022-02-16 03:44:00+00:00,292.0,8.93,300.0,10.44,12.17,47.59359,-54.27349
2022-02-16 03:54:00+00:00,294.0,8.87,285.0,10.31,12.17,47.59359,-54.27349
2022-02-16 04:04:00+00:00,291.0,8.36,288.0,10.06,12.17,47.59359,-54.27349
2022-02-16 04:14:00+00:00,283.0,9.22,285.0,10.51,12.17,47.59359,-54.27349
2022-02-16 04:24:00+00:00,288.0,9.45,288.0,10.67,12.17,47.59359,-54.27349
2022-02-16 04:34:00+00:00,291.0,7.47,286.0,9.84,12.17,47.59359,-54.27349
2022-02-16 04:44:00+00:00,281.0,9.19,295.0,10.72,12.17,47.59359,-54.27349
2022-02-16 04:54:00+00:00,279.0,8.24,278.0,10.67,12.17,47.59359,-54.27349
2022-02-16 05:04:00+00:00,279.0,8.67,277.0,10.58,12.17,47.59359,-54.27349
2022-02-16 05:14:01+00:00,281.0,9.26,274.0,10.49,12.09,47.59359,-54.27349
2022-02-16 05:24:01+00:00,286.0,9.68,286.0,10.95,12.09,47.59359,-54.27349
2022-02-16 05:34:01+00:00,285.0,9.7,290.0,11.29,12.09,47.59359,-54.27349
2022-02-16 05:44:01+00:00,286.0,9.83,288.0,11.01,12.09,47.59359,-54.27349
2022-02-16 05:54:01+00:00,284.0,9.31,288.0,11.01,12.09,47.59359,-54.27349
2022-02-16 06:04:01+00:00,276.0,9.58,282.0,10.57,12.09,47.59359,-54.27349
2022-02-16 06:14:00+00:00,274.0,6.41,272.0,10.16,12.09,47.59359,-54.27349
2022-02-16 06:24:00+00:00,282.0,7.12,282.0,11.19,12.09,47.59359,-54.27349
2022-02-16 06:34:00+00:00,271.0,6.59,265.0,9.09,12.09,47.59359,-54.27349
2022-02-16 06:44:00+00:00,280.0,6.22,276.0,8.26,12.09,47.59359,-54.27349
2022-02-16 06:54:00+00:00,287.0,6.69,287.0,10.48,12.09,47.59359,-54.27349
2022-02-16 07:04:00+00:00,283.0,7.26,282.0,11.34,12.09,47.59359,-54.27349
2022-02-16 07:14:00+00:00,291.0,6.6,292.0,8.37,12.09,47.59359,-54.27349
2022-02-16 07:24:00+00:00,287.0,6.9,279.0,10.74,12.09,47.59359,-54.27349
2022-02-16 07:34:00+00:00,295.0,7.46,285.0,11.87,12.09,47.59359,-54.27349
2022-02-16 07:44:00+00:00,285.0,7.3,274.0,11.36,12.09,47.59359,-54.27349
2022-02-16 07:54:00+00:00,284.0,10.24,286.0,12.64,12.09,47.59359,-54.27349
2022-02-16 08:04:00+00:00,286.0,6.75,293.0,11.06,12.09,47.59359,-54.27349
2022-02-16 08:14:01+00:00,275.0,7.79,278.0,10.81,12.01,47.59359,-54.27349
2022-02-16 08:24:01+00:00,282.0,6.79,281.0,10.47,12.01,47.59359,-54.27349
2022-02-16 08:34:01+00:00,279.0,7.83,273.0,11.85,12.01,47.59359,-54.27349
2022-02-16 08:44:01+00:00,282.0,8.75,277.0,15.55,12.01,47.59359,-54.27349
2022-02-16 08:54:01+00:00,271.0,6.51,269.0,9.59,12.01,47.59359,-54.27349
2022-02-16 09:04:01+00:00,270.0,7.74,259.0,12.17,12.01,47.59359,-54.27349
2022-02-16 09:14:00+00:00,283.0,6.89,289.0,8.89,12.09,47.59359,-54.27349
2022-02-16 09:24:00+00:00,296.0,9.0,297.0,12.64,12.09,47.59359,-54.27349
2022-02-16 09:34:00+00:00,296.0,8.94,284.0,16.8,12.09,47.59359,-54.27349
2022-02-16 09:44:00+00:00,298.0,8.12,293.0,12.24,12.09,47.59359,-54.27349
2022-02-16 09:54:00+00:00,284.0,7.2,280.0,10.82,12.09,47.59359,-54.27349
2022-02-16 10:04:00+00:00,291.0,7.62,280.0,11.32,12.09,47.59359,-54.27349
2022-02-16 10:14:01+00:00,275.0,7.36,277.0,10.57,12.01,47.59359,-54.27349
2022-02-16 10:24:01+00:00,290.0,7.23,286.0,10.28,12.01,47.59359,-54.27349
2022-02-16 10:34:01+00:00,294.0,8.02,296.0,12.32,12.01,47.59359,-54.27349
2022-02-16 10:44:01+00:00,286.0,8.15,284.0,10.55,12.01,47.59359,-54.27349
2022-02-16 10:54:01+00:00,289.0,7.86,285.0,11.98,12.01,47.59359,-54.27349
2022-02-16 11:04:01+00:00,293.0,7.19,282.0,10.51,12.01,47.59359,-54.27349
2022-02-16 11:14:01+00:00,301.0,7.29,308.0,9.75,12.89,47.59359,-54.27349
2022-02-16 11:24:01+00:00,295.0,8.01,293.0,11.36,12.89,47.59359,-54.27349
2022-02-16 11:34:01+00:00,292.0,7.71,286.0,11.81,12.89,47.59359,-54.27349
2022-02-16 11:44:01+00:00,305.0,8.11,301.0,13.01,12.89,47.59359,-54.27349
2022-02-16 11:54:01+00:00,293.0,8.68,286.0,12.09,12.89,47.59359,-54.27349
2022-02-16 12:04:01+00:00,301.0,7.72,288.0,11.29,12.89,47.59359,-54.27349
2022-02-16 12:14:01+00:00,303.0,8.92,304.0,12.1,13.76,47.59359,-54.27349
2022-02-16 12:24:01+00:00,294.0,9.54,295.0,11.3,13.76,47.59359,-54.27349
2022-02-16 12:34:01+00:00,309.0,9.88,299.0,11.81,13.76,47.59359,-54.27349
2022-02-16 12:44:01+00:00,300.0,8.45,297.0,11.7,13.76,47.59359,-54.27349
2022-02-16 12:54:01+00:00,296.0,8.69,292.0,11.17,13.76,47.59359,-54.27349
2022-02-16 13:04:01+00:00,287.0,11.2,286.0,18.89,13.76,47.59359,-54.27349
2022-02-16 13:14:00+00:00,300.0,11.6,289.0,17.43,13.68,47.59359,-54.27349
2022-02-16 13:24:00+00:00,290.0,14.57,296.0,19.57,13.68,47.59359,-54.27349
2022-02-16 13:34:00+00:00,295.0,14.24,291.0,19.29,13.68,47.59359,-54.27349
2022-02-16 13:44:00+00:00,287.0,15.06,280.0,18.51,13.68,47.59359,-54.27349
2022-02-16 13:54:00+00:00,290.0,10.89,284.0,19.45,13.68,47.59359,-54.27349
2022-02-16 14:04:00+00:00,285.0,14.34,287.0,18.33,13.68,47.59359,-54.27349
2022-02-16 14:14:01+00:00,288.0,13.37,287.0,18.32,14.64,47.59359,-54.27349
2022-02-16 14:24:01+00:00,307.0,10.42,303.0,18.05,14.64,47.59359,-54.27349
2022-02-16 14:34:01+00:00,292.0,13.49,294.0,19.02,14.64,47.59359,-54.27349
2022-02-16 14:44:01+00:00,295.0,9.92,291.0,16.6,14.64,47.59359,-54.27349
2022-02-16 14:54:01+00:00,302.0,15.47,303.0,20.52,14.64,47.59359,-54.27349
2022-02-16 15:04:01+00:00,302.0,10.33,310.0,12.75,14.64,47.59359,-54.27349
2022-02-16 15:14:01+00:00,305.0,15.67,304.0,21.49,14.24,47.59359,-54.27349
2022-02-16 15:24:01+00:00,306.0,12.42,293.0,18.81,14.24,47.59359,-54.27349
2022-02-16 15:34:01+00:00,308.0,10.45,301.0,15.28,14.24,47.59359,-54.27349
2022-02-16 15:44:01+00:00,303.0,11.39,292.0,19.07,14.24,47.59359,-54.27349
2022-02-16 15:54:01+00:00,300.0,9.87,302.0,13.48,14.24,47.59359,-54.27349
2022-02-16 16:04:01+00:00,313.0,12.09,305.0,15.07,14.24,47.59359,-54.27349
2022-02-16 16:14:01+00:00,318.0,11.33,312.0,14.29,13.68,47.59359,-54.27349
2022-02-16 16:24:01+00:00,315.0,11.2,313.0,14.62,13.68,47.59359,-54.27349
2022-02-16 16:34:01+00:00,310.0,10.39,316.0,13.2,13.68,47.59359,-54.27349
2022-02-16 16:44:01+00:00,294.0,13.6,286.0,18.92,13.68,47.59359,-54.27349
2022-02-16 16:54:01+00:00,300.0,10.56,303.0,12.02,13.68,47.59359,-54.27349
2022-02-16 17:04:01+00:00,310.0,11.07,317.0,14.82,13.68,47.59359,-54.27349
2022-02-16 17:14:01+00:00,302.0,9.24,302.0,11.53,13.92,47.59359,-54.27349
2022-02-16 17:24:01+00:00,309.0,9.73,306.0,12.1,13.92,47.59359,-54.27349
2022-02-16 17:34:01+00:00,312.0,11.07,299.0,17.52,13.92,47.59359,-54.27349
2022-02-16 17:44:01+00:00,305.0,9.28,295.0,12.21,13.92,47.59359,-54.27349
2022-02-16 17:54:01+00:00,296.0,12.47,294.0,17.15,13.92,47.59359,-54.27349
2022-02-16 18:04:01+00:00,303.0,10.5,284.0,16.87,13.92,47.59359,-54.27349
2022-02-16 18:14:00+00:00,318.0,11.02,305.0,14.54,14.32,47.59359,-54.27349
2022-02-16 18:24:00+00:00,310.0,9.96,316.0,11.54,14.32,47.59359,-54.27349
2022-02-16 18:34:00+00:00,301.0,10.68,297.0,12.33,14.32,47.59359,-54.27349
2022-02-16 18:44:00+00:00,305.0,10.66,311.0,12.84,14.32,47.59359,-54.27349
2022-02-16 18:54:00+00:00,310.0,12.03,313.0,13.43,14.32,47.59359,-54.27349
2022-02-16 19:04:00+00:00,310.0,9.04,300.0,11.55,14.32,47.59359,-54.27349
2022-02-16 19:14:00+00:00,312.0,10.14,303.0,13.31,14.4,47.59359,-54.27349
2022-02-16 19:24:00+00:00,312.0,9.99,318.0,12.29,14.4,47.59359,-54.27349
2022-02-16 19:34:00+00:00,306.0,9.45,301.0,13.68,14.4,47.59359,-54.27349
2022-02-16 19:44:00+00:00,309.0,9.92,304.0,12.71,14.4,47.59359,-54.27349
2022-02-16 19:54:00+00:00,291.0,9.53,292.0,11.1,14.4,47.59359,-54.27349
2022-02-16 20:04:00+00:00,293.0,8.86,297.0,11.58,14.4,47.59359,-54.27349
2022-02-16 20:14:01+00:00,297.0,8.52,298.0,11.66,13.6,47.59359,-54.27349
2022-02-16 20:24:01+00:00,295.0,9.28,302.0,12.26,13.6,47.59359,-54.27349
2022-02-16 20:34:01+00:00,293.0,8.24,290.0,9.46,13.6,47.59359,-54.27349
2022-02-16 20:44:01+00:00,293.0,9.79,297.0,11.69,13.6,47.59359,-54.27349
2022-02-16 20:54:01+00:00,277.0,7.81,279.0,10.52,13.6,47.59359,-54.27349
2022-02-16 21:04:01+00:00,292.0,8.48,290.0,10.93,13.6,47.59359,-54.27349
2022-02-16 21:14:01+00:00,276.0,7.95,277.0,10.15,13.13,47.59359,-54.27349
2022-02-16 21:24:01+00:00,279.0,5.61,283.0,8.88,13.13,47.59359,-54.27349
2022-02-16 21:34:01+00:00,286.0,8.61,284.0,13.21,13.13,47.59359,-54.27349
2022-02-16 21:44:01+00:00,296.0,8.65,296.0,11.26,13.13,47.59359,-54.27349
2022-02-16 21:54:01+00:00,279.0,8.65,280.0,10.6,13.13,47.59359,-54.27349
2022-02-16 22:04:01+00:00,300.0,7.89,296.0,11.98,13.13,47.59359,-54.27349
2022-02-16 22:14:01+00:00,287.0,8.34,284.0,10.57,12.49,47.59359,-54.27349
2022-02-16 22:24:01+00:00,279.0,8.83,286.0,10.85,12.49,47.59359,-54.27349
2022-02-16 22:34:01+00:00,275.0,9.09,277.0,10.66,12.49,47.59359,-54.27349
2022-02-16 22:44:01+00:00,265.0,6.73,263.0,10.04,12.49,47.59359,-54.27349
2022-02-16 22:54:01+00:00,263.0,8.16,265.0,10.44,12.49,47.59359,-54.27349
2022-02-16 23:04:01+00:00,261.0,8.67,255.0,10.5,12.49,47.59359,-54.27349
2022-02-16 23:14:00+00:00,270.0,9.25,275.0,10.64,12.41,47.59359,-54.27349
2022-02-16 23:24:00+00:00,271.0,7.32,276.0,9.57,12.41,47.59359,-54.27349
2022-02-16 23:34:00+00:00,269.0,9.12,272.0,10.64,12.41,47.59359,-54.27349
2022-02-16 23:44:00+00:00,280.0,9.15,283.0,10.6,12.41,47.59359,-54.27349
2022-02-16 23:54:00+00:00,273.0,6.91,277.0,8.48,12.41,47.59359,-54.27349
